Location: Bijele Vode
(45.2833°N, 16.2000°E)
Time: 14:19:31
(UTC+00:00)

Cosmos 1536 Rocket - Pass Details

Date: 18 September 2020
Orbit: 606 x 632 km, 82.5° (Epoch: 29 October)

Event Time Altitude Azimuth Distance (km) Brightness Sun altitude
Rises 18:32:30 0° 354° (N) 2,915 7.4 -16.8°
Reaches altitude 10° 18:34:46 10° 357° (N) 2,007 6.5 -17.1°
Maximum altitude 18:39:11 64° 80° (E) 701 3.5 -17.9°
Enters shadow 18:41:17 30° 151° (SSE) 1,136 4.5 -18.2°
